This is the latest recevied weather packets stored in our database for station/object K8GLX. If no packets are shown the sender has not sent any weather packets the latest 1 day(s).
| Time | Temp. | Humidity | Pressure | Rain* | Wind** | Luminosity | Snow |
|---|---|---|---|---|---|---|---|
| 1777983428 | 17.78° C | 63% | 1004.6 hPa | 0 mm | 0.89 m/s, 259° | 64 W/m² | - |
| 1777983261 | 17.78° C | 63% | 1004.5 hPa | 0 mm | 2.24 m/s, 220° | 57 W/m² | - |
| 1777982829 | 18.33° C | 62% | 1004.4 hPa | 0 mm | 2.24 m/s, 235° | 55 W/m² | - |
| 1777982663 | 18.33° C | 61% | 1004 hPa | 0 mm | 4.47 m/s, 249° | 55 W/m² | - |
| 1777982229 | 18.33° C | 61% | 1004 hPa | 0 mm | 4.02 m/s, 188° | 54 W/m² | - |
| 1777981935 | 18.33° C | 60% | 1004.2 hPa | 0 mm | 2.68 m/s, 237° | 57 W/m² | - |
| 1777981629 | 18.33° C | 60% | 1004.3 hPa | 0 mm | 1.79 m/s, 230° | 51 W/m² | - |
| 1777981463 | 18.33° C | 60% | 1004.2 hPa | 0 mm | 3.13 m/s, 266° | 47 W/m² | - |
| 1777981029 | 18.33° C | 60% | 1003.9 hPa | 0 mm | 1.79 m/s, 275° | 24 W/m² | - |
| 1777980735 | 18.89° C | 59% | 1004.1 hPa | 0 mm | 1.34 m/s, 255° | 17 W/m² | - |
| 1777980429 | 18.89° C | 60% | 1004.3 hPa | 0 mm | 1.79 m/s, 272° | 32 W/m² | - |
| 1777980135 | 18.89° C | 59% | 1004 hPa | 0 mm | 1.34 m/s, 283° | 42 W/m² | - |
| 1777979829 | 18.89° C | 60% | 1004.2 hPa | 0 mm | 3.13 m/s, 258° | 44 W/m² | - |
| 1777979535 | 18.89° C | 59% | 1003.9 hPa | 0 mm | 2.24 m/s, 231° | 39 W/m² | - |
| 1777979229 | 18.89° C | 60% | 1004.2 hPa | 0 mm | 2.68 m/s, 195° | 33 W/m² | - |
| 1777979060 | 18.89° C | 59% | 1003.8 hPa | 0 mm | 2.24 m/s, 275° | 27 W/m² | - |
| 1777978629 | 18.89° C | 59% | 1003.9 hPa | 0 mm | 6.26 m/s, 251° | 20 W/m² | - |
| 1777978335 | 18.89° C | 60% | 1003.8 hPa | 0 mm | 5.36 m/s, 265° | 13 W/m² | - |
| 1777978029 | 18.89° C | 61% | 1003.6 hPa | 0 mm | 1.34 m/s, 218° | 10 W/m² | - |
| 1777977734 | 18.89° C | 60% | 1003.7 hPa | 0 mm | 2.68 m/s, 210° | 6 W/m² | - |
| 1777977431 | 19.44° C | 60% | 1003.3 hPa | 0 mm | 1.79 m/s, 278° | 5 W/m² | - |
| 1777977260 | 19.44° C | 60% | 1003.4 hPa | 0 mm | 4.02 m/s, 250° | 5 W/m² | - |
| 1777976828 | 19.44° C | 60% | 1003.4 hPa | 0 mm | 2.24 m/s, 246° | 3 W/m² | - |
| 1777976660 | 19.44° C | 60% | 1003.5 hPa | 0 mm | 1.79 m/s, 271° | 2 W/m² | - |
| 1777976229 | 19.44° C | 59% | 1003.4 hPa | 0 mm | 4.47 m/s, 234° | 0 W/m² | - |
* Rain latest hour (hover to see other rain measurements)
** Current wind speed in m/s (hover to see current wind gust speed)